Location: Darmstadt
(49.8706°N, 8.6494°E)
Time: 15:41:03
(UTC+01:00)

Daily predictions for brighter satellites

Satellite Brightness Start Highest point End
(mag) Time Altitude Azimuth Time Altitude Azimuth Time Altitude Azimuth
Cosmos 2098 Rocket 4.3 19:07:06 10° SSE 19:12:22 43° E 19:18:33 10° NNE
Cosmos 1633 Rocket 4.1 19:10:02 10° SSW 19:14:20 52° WNW 19:18:41 10° N
Iridium 4 Rocket 3.8 19:10:46 10° NNE 19:14:26 29° ENE 19:18:04 10° SE
USA 238 DEB 4.2 19:09:44 10° NW 19:16:48 56° NE 19:24:21 10° ESE
USA 238 4.2 19:09:51 10° NW 19:16:54 56° NE 19:24:26 10° ESE
Cosmos 1707 2.9 19:14:40 10° NNW 19:18:29 76° W 19:22:15 10° S
Cosmos 1371 Rocket 4.1 19:13:20 10° SSW 19:18:37 85° WNW 19:23:53 10° NNE
Exosat Rocket 3.9 19:13:32 10° SSW 19:18:45 73° ESE 19:25:36 10° NNE
MINOTAUR 4 R/B 4.4 19:16:11 10° NNE 19:19:24 37° E 19:22:36 10° SSE
Okean 2 4.0 19:15:50 10° N 19:19:36 35° ENE 19:23:22 10° SE
Cosmos 1459 Rocket 3.9 19:14:02 10° N 19:20:08 79° E 19:26:12 10° SSE
Cosmos 1867 4.2 19:16:41 10° S 19:21:29 33° ESE 19:26:19 10° NE
Cosmos 2061 Rocket 4.3 19:18:45 10° N 19:25:02 51° ENE 19:31:15 10° SSE
Cosmos 2056 Rocket 3.7 19:21:39 10° SSW 19:26:46 78° WNW 19:31:54 10° NNE
CZ-4B R/B 3.4 19:21:21 10° SSE 19:27:01 86° WSW 19:32:41 10° NNW
Cosmos 2322 4.3 19:22:17 10° NW 19:27:53 61° WSW 19:33:24 10° SSE
Cosmos 1805 3.9 19:24:44 10° SSE 19:28:07 31° E 19:31:33 10° NNE
Cosmos 2219 Rocket 3.3 19:22:43 10° NW 19:28:11 48° WSW 19:33:36 10° S
Timation 1 Rocket 4.4 19:23:56 10° SSW 19:29:56 85° ESE 19:36:00 10° NNE
Cosmos 1980 3.9 19:24:57 10° NNW 19:30:34 54° NE 19:36:08 10° SE
Cosmos 1626 3.1 19:29:10 10° NNW 19:32:38 49° W 19:36:04 10° S
Meteor 1-21 4.3 19:27:31 10° NNW 19:33:10 85° W 19:38:49 10° S
Cosmos 1703 Rocket 3.8 19:28:53 10° NNW 19:33:21 75° W 19:37:44 10° S
ISS -3.4 19:30:14 10° W 19:33:34 61° N 19:36:45 11° E
Cosmos 1725 Rocket 4.0 19:28:27 10° N 19:34:38 65° ENE 19:40:46 10° SSE
CSL-04 Debris 4.3 19:31:16 10° SE 19:36:33 57° ENE 19:41:53 10° N
SL-27 R/B 3.1 19:33:54 10° SW 19:37:07 55° WNW 19:40:20 10° NNE
Lacrosse 5 rocket 2.3 19:34:01 10° SSW 19:37:42 28° SE 19:41:15 10° ENE
Resurs 01 Rocket 2.8 19:34:06 10° ESE 19:37:43 25° ENE 19:41:20 10° N
Cosmos 2333 Rocket 4.3 19:33:23 10° NW 19:38:15 29° WSW 19:43:06 10° SSW
Cosmos 1850 Rocket 4.0 19:34:19 10° NNW 19:39:40 73° ENE 19:45:00 10° SSE
USA 186 1.7 19:42:33 10° SSE 19:45:35 61° ENE 19:48:43 10° N
SJ-6B 2.7 19:42:13 10° SSE 19:46:08 76° ENE 19:49:57 10° N
NOSS 0 Rocket 4.0 19:40:08 10° NNW 19:46:21 84° WSW 19:52:31 10° SSE
Cosmos 1110 Rocket 4.3 19:41:55 10° S 19:46:46 41° ESE 19:51:37 10° NE
Cosmos 1975 3.0 19:44:58 10° SSW 19:48:55 76° W 19:52:56 10° N
Resurs 1-3 3.6 19:44:45 10° SSE 19:49:03 62° ENE 19:53:23 10° N
Cosmos 1733 Rocket 4.0 19:45:31 10° SE 19:49:06 26° E 19:52:43 10° NNE
COSMOS 2428 3.5 19:43:57 10° NW 19:49:32 54° WSW 19:55:06 10° S
CZ-4C R/B 3.7 19:43:46 10° NW 19:49:49 37° NNE 19:56:12 13° E
USA 215 3.5 19:43:54 10° ENE 19:50:27 73° NNW 19:56:57 10° WSW
Cosmos 1733 3.0 19:46:59 10° S 19:50:43 71° E 19:54:29 10° NNE
Cosmos 2297 Rocket 2.6 19:45:38 10° S 19:50:47 38° ESE 19:55:58 10° NE
BREEZE-M DEB (TANK) 3.6 19:45:05 10° W 19:54:38 79° N 19:58:14 16° E
Cosmos 1802 Rocket 4.3 19:48:44 10° NNW 19:55:00 76° W 20:01:19 10° S
SL-14 R/B 3.1 19:52:25 10° N 19:56:16 74° ENE 20:00:05 10° SSE
SPOT 1/Viking Rocket 3.9 19:52:45 10° SE 19:57:42 47° ENE 20:02:41 10° N
H-2A R/B 4.3 19:57:57 15° E 19:59:25 17° ENE 20:02:19 10° NNE
Meteor 2-10 3.9 19:56:39 10° S 20:01:40 77° E 20:06:48 10° NNE
Cosmos 1331 Rocket 4.1 19:56:47 10° S 20:01:44 50° ESE 20:06:44 10° NNE
Cosmos 1271 Rocket 3.7 20:01:11 20° SE 20:02:30 25° E 20:05:36 10° NE
Cosmos 2219 4.2 19:58:17 10° SSE 20:02:30 22° ESE 20:06:44 10° NE
Cosmos 2016 Rocket 4.1 19:56:52 10° NNW 20:02:58 78° W 20:09:06 10° S
Cosmos 1452 Rocket 3.4 19:58:57 10° SSW 20:04:12 75° ESE 20:09:30 10° NNE
Okean-O 2.6 20:00:44 10° SSE 20:05:07 65° ENE 20:09:31 10° N
Cosmos 2227 Rocket 2.8 20:02:02 10° SSE 20:06:59 32° ESE 20:11:56 10° NE
Cosmos 2123 Rocket 4.1 20:03:17 10° S 20:09:36 82° W 20:15:59 10° N
Cosmos 2221 Rocket 4.0 20:05:37 10° N 20:09:51 42° ENE 20:12:19 21° SE
Okean O Rocket 2.7 20:05:43 10° S 20:09:57 45° W 20:14:11 10° NNW
Cosmos 1470 4.3 20:12:10 19° ENE 20:12:10 19° ENE 20:14:26 10° NE
Cosmos 2242 Rocket 4.5 20:08:30 10° NNW 20:12:58 53° W 20:17:23 10° S
Cosmos 968 Rocket 3.5 20:09:17 10° NNW 20:14:25 61° ENE 20:17:50 21° SE
Landsat 7 4.1 20:10:53 10° S 20:15:35 70° WSW 20:20:19 10° NNW
Intercosmos 25 Rocket 4.4 20:09:20 10° N 20:17:26 68° ENE 20:21:27 16° SSE
Meteor 2-5 Rocket 4.4 20:13:38 10° N 20:19:03 38° ENE 20:21:56 24° ESE
SL-16 R/B 2.7 20:14:11 10° NNW 20:19:38 44° NE 20:22:33 25° ESE
GEOS 3 Rocket 3.8 20:14:20 10° NE 20:19:44 79° NW 20:25:07 10° SW
Cosmos 1447 Rocket 4.5 20:15:33 10° S 20:21:37 58° E 20:27:39 10° NNE
NOSS 3-4 (A) 3.8 20:18:08 10° S 20:23:10 35° ESE 20:28:33 10° NE
NOSS 3-4 (C) 3.8 20:18:18 10° S 20:23:17 34° ESE 20:28:38 10° NE
ERS-1 Rocket 4.3 20:23:42 20° ENE 20:24:51 21° ENE 20:28:34 10° N
USA 281 4.2 20:19:04 10° NNE 20:25:21 50° NW 20:31:37 10° SW
SJ 16-02 2.8 20:22:02 10° N 20:25:26 21° NE 20:26:12 20° ENE
Terra 3.4 20:26:14 17° ENE 20:26:51 17° ENE 20:29:56 10° NNE
Landsat 5 3.4 20:23:42 10° NNE 20:27:30 51° E 20:30:29 16° S
PLATFORM 4.4 20:28:21 10° SSW 20:32:01 63° SE 20:34:43 17° NE
MOS 1 4.3 20:28:59 22° SE 20:32:45 65° ENE 20:38:25 10° N
CZ-4 R/B 4.0 20:30:13 10° SW 20:33:05 20° W 20:36:01 10° NW
SWARM C 4.5 20:31:41 22° S 20:33:47 82° E 20:37:16 10° N
SWARM A 4.2 20:32:21 31° SSE 20:33:53 73° E 20:37:22 10° N
Ariane Rocket 3.6 20:34:29 31° ESE 20:36:00 38° ENE 20:40:41 10° N
CSL-04 Rocket 4.4 20:33:18 10° S 20:38:44 56° W 20:44:12 10° NNW
Cosmos 1726 3.5 20:36:14 10° SW 20:39:31 37° WNW 20:42:50 10° N
ATLAS 3B R/B 4.2 20:33:46 10° NW 20:40:09 30° NNE 20:45:55 13° ENE
SL-4 R/B 3.0 20:38:46 10° SSW 20:42:34 34° SSE 20:42:34 34° SSE
IRS-1C Rocket 4.3 20:38:49 14° S 20:43:26 74° WSW 20:48:44 10° NNW
Spot 2 Rocket 4.4 20:46:03 29° ENE 20:46:47 31° ENE 20:51:13 10° N
Cosmos 1302 Rocket 4.0 20:42:34 10° S 20:47:45 60° ESE 20:52:59 10° NNE
MetOp-B 4.2 20:47:41 37° SE 20:49:41 60° ENE 20:54:58 10° N
Cosmos 1766 3.4 20:46:42 10° SSW 20:50:28 70° W 20:54:16 10° N
Cosmos 1513 Rocket 4.4 20:44:28 10° N 20:50:33 67° ENE 20:53:34 31° SSE
Cosmos 2237 Rocket 3.1 20:47:26 10° NW 20:52:46 45° WSW 20:57:15 14° S
Cosmos 2263 Rocket 4.3 20:57:03 11° NE 20:57:03 11° NE 20:57:18 10° NE
SPOT 5 3.2 20:58:41 43° E 20:59:04 44° ENE 21:03:43 10° N
ATLAS CENTAUR R/B 4.2 20:45:38 10° WSW 21:01:25 83° NNW 21:08:32 10° ENE
Cosmos 1867 4.3 20:59:32 10° WSW 21:04:53 55° NW 21:10:16 10° NE
Meteor 1-22 Rocket 4.3 21:01:46 29° SSE 21:04:56 63° E 21:10:56 10° NNE
ISS -2.9 21:07:06 10° WNW 21:09:41 50° WNW 21:09:41 50° WNW
Cosmos 1340 Rocket 4.0 21:06:56 10° N 21:09:28 30° NNE 21:09:28 30° NNE
SPOT 3 Rocket 3.6 21:10:16 52° E 21:10:55 56° ENE 21:16:03 10° N
Resurs 01 Rocket 2.6 21:11:38 23° SSW 21:14:00 43° W 21:18:14 10° NNW
FALCON 9 R/B 4.1 20:57:10 10° WSW 21:14:57 34° SSW 21:17:58 27° SSE
Cosmos 2034 Rocket 4.0 21:09:02 10° N 21:15:11 61° ENE 21:16:26 50° ESE
Cosmos 1503 Rocket 4.5 21:10:50 10° NNW 21:15:52 43° ENE 21:16:08 43° ENE
Meteor 1-15 Rocket 4.2 21:11:09 16° S 21:15:53 90° ESE 21:21:49 10° NNE
Lacrosse 5 rocket 1.6 21:12:08 10° WSW 21:16:21 67° NNW 21:16:54 58° NNE
Spot 2 4.4 21:17:53 63° E 21:18:08 64° ENE 21:22:55 10° N
ADEOS Rocket 3.3 21:22:30 48° ESE 21:23:59 59° ENE 21:30:59 10° N
Tsikada Rocket 4.5 21:24:37 40° ENE 21:24:37 40° ENE 21:29:44 10° NNE
Cosmos 1943 3.7 21:19:18 10° NNW 21:24:39 42° NE 21:25:06 41° ENE
Cosmos 1486 Rocket 3.8 21:21:28 10° NNW 21:26:50 78° ENE 21:27:14 73° ESE
Meteor 1-24 Rocket 3.9 21:21:06 10° NNW 21:27:03 79° W 21:29:00 45° S
Cosmos 1992 Rocket 4.4 21:29:45 47° NE 21:29:45 47° NE 21:33:36 10° NNE
CARTOSAT-1 4.4 21:29:30 39° SW 21:30:22 44° W 21:34:31 10° NNW
USA 215 4.0 21:28:10 17° ENE 21:33:03 49° N 21:39:17 10° WNW
H-2A R/B 2.7 21:34:18 71° W 21:34:18 71° W 21:38:39 10° NNW
Cosmos 2297 Rocket 3.3 21:29:24 10° SW 21:34:47 44° NW 21:40:12 10° NNE
Cosmos 220 Rocket 4.5 21:32:50 10° NNW 21:36:10 55° NNW 21:36:10 55° NNW
CZ-4C R/B 2.9 21:32:07 10° NW 21:39:11 89° NE 21:41:22 54° SE
Cosmos 2082 4.1 21:42:46 49° NE 21:42:46 49° NE 21:46:57 10° NNE
Cosmos 2344 4.5 21:36:38 10° NW 21:44:25 49° NNE 21:48:51 31° E
Cosmos 2219 3.4 21:40:31 10° SW 21:46:07 69° WNW 21:51:45 10° NNE
Cosmos 1470 4.1 21:47:13 38° WNW 21:47:13 38° WNW 21:50:48 10° N
H-2A R/B 4.5 21:43:51 10° NNE 21:44:28 13° NNE 21:44:28 13° NNE
Cosmos 2227 Rocket 3.0 21:45:19 10° SW 21:50:49 51° NW 21:56:21 10° NNE
Cosmos 1025 Rocket 3.9 21:46:36 10° NNW 21:49:43 46° NNW 21:49:43 46° NNW
Cosmos 1908 Rocket 4.5 21:57:19 47° WNW 21:57:19 47° WNW 22:01:31 10° N
ERS-1 Rocket 3.3 22:03:40 62° WNW 22:03:40 62° WNW 22:08:11 10° NNW
SL-16 R/B 3.2 21:58:29 10° NW 22:03:42 38° WSW 22:04:27 36° SW
Terra 2.4 22:04:58 54° NNW 22:04:58 54° NNW 22:08:41 10° NNW
SJ 16-02 2.5 21:59:57 10° NNW 22:03:06 41° NW 22:03:06 41° NW
Cosmos 1354 Rocket 4.4 22:05:01 10° NNW 22:09:21 61° NNW 22:09:21 61° NNW
NOSS 3-4 (A) 3.8 22:08:05 10° WSW 22:13:43 58° NW 22:19:56 10° NE
NOSS 3-4 (C) 3.8 22:08:13 10° WSW 22:13:49 58° NW 22:20:03 10° NE
Ariane Rocket 4.2 22:14:38 34° WSW 22:15:00 34° W 22:19:37 10° NNW
Cosmos 1975 Rocket 4.4 22:10:56 10° NNW 22:13:53 38° NW 22:13:53 38° NW
BREEZE-M DEB (TANK) 4.3 22:17:47 65° SW 22:18:45 79° SSE 22:36:58 10° ENE
ARIANE 5 R/B 4.4 22:24:21 27° N 22:24:21 27° N 22:26:25 10° N
Spot 2 Rocket 4.5 22:26:12 43° WNW 22:26:12 43° WNW 22:30:30 10° NNW
ATLAS 3B R/B 3.2 22:25:01 10° NW 22:32:27 58° NE 22:33:09 56° ENE
Cosmos 2263 Rocket 3.2 22:38:39 38° NNE 22:38:39 38° NNE 22:42:06 10° NNE
Cosmos 1634 Rocket 4.2 22:33:53 10° NNW 22:39:40 65° WNW 22:39:40 65° WNW
Lacrosse 5 rocket 4.4 22:52:02 10° WNW 22:52:17 11° WNW 22:52:17 11° WNW
ADEOS Rocket 4.4 23:09:26 32° W 23:09:55 32° W 23:16:07 10° NNW
USA 215 3.7 23:15:29 56° NNE 23:15:31 56° NNE 23:21:53 10° WNW
ATLAS CENTAUR R/B 4.0 23:06:41 10° W 23:17:01 47° N 23:18:24 41° NNE
NOSS 3-1 (C) 4.1 23:13:29 10° NW 23:19:58 68° NNE 23:19:58 68° NNE
CZ-4C R/B 4.3 23:21:11 10° WNW 23:26:32 28° WSW 23:26:32 28° WSW
Cosmos 2082 Rocket 4.3 23:29:27 10° N 23:33:21 19° NE 23:33:30 19° NE
Cosmos 1833 Rocket 4.3 23:36:28 10° NNW 23:39:51 30° N 23:39:51 30° N
ATLAS 2AS CENTAUR R/B 3.4 23:48:05 53° NNE 23:48:05 53° NNE 23:53:33 10° NE
